INTELSAT 33E DEB, 61993

Orbit data source: Space-Track

INTELSAT 33E DEB, 61993 is space debris in GEO originally from a launch on Wed, 24 Aug 2016 UTC launched from the French Guiana (FRGUI). Debris objects in space refer to the collection of defunct objects orbiting the Earth. Examples of debris include non-operational satellites, rocket bodies, and fragments generated from explosions, collisions, or faulty payload assembly.

Not visible in the next 10 days
Identifier
61993, 2016-053K
Orbit
GEO
Country
Flag of USUS / ITSO
Related business
Manufacturer
Boeing/ES
Mission
Spacecraft
Bus & Motor
Unknown
Mass
Unknown
Launch date (UTC)
Icon of a cake. It is the launch day of the satellite!2016-08-24 (10 years ago)
Launch vehicle
Unknown
Launch site
French Guiana (FRGUI)
Object type
Payload
Rocket body
Debris
Shape & HBR
Unknown shape, 1.1 m
Radar Cross Section
RCS unknown

Expand to show TLE details & history
Last TLE update: 1 day ago

TLE from 1 day ago
0 INTELSAT 33E DEB
1 61993U 16053K   26234.86821504 -.00000020  00000-0  00000-0 0  9997
2 61993   1.6324  75.4473 0085503 319.9352  39.8252  1.01197900  6811
Epoch: 2026-08-22T20:50Z
TLE epoch observation values (Epoch: 2026-08-22T20:50:13.779Z)
Latitude
0.00001°
Longitude
152.11379°
Altitude
35,256.126 km
Speed
3.104 km/s
True Right ascension
05h 03m 22s
True Declination
0° 00' 00"
Sunlit
Object was in daylight at epoch
Visualization orbit readout
Latitude
Unknown
Longitude
Unknown
Altitude
Unknown
Speed
Unknown
Apparent Right ascension
Unknown
Apparent Declination
Unknown
Sunlit
N/A
Visualization observer readout
Local Sidereal Time
15:55:36
Azimuth
Unknown
Elevation
Unknown
Doppler factor
Unknown
Orbital elements
Apogee altitude
35,888.356 km
Perigee altitude
35,171.701 km
Semi-major axis
41,908.166 km
Eccentricity
0.00855
Inclination
1.6324°
RAAN
75.4473°
Arg. of periapsis
319.9352°
True anomaly
40.45788°
Mean anomaly
39.8252°
Eccentric anomaly
40.14102°
Mean motion
0.25299 °/min
Orbital period
1,423.01 mins
BSTAR
0
Loading maneuver chart data...
Computing Atmospheric mass density...
Loading historical data...
Loading historical data...
Loading historical data...
Loading historical data...
Loading historical data...
Loading historical data...
Loading historical data...

Documentation

Showing up to 5 results
|